| time (UTC) | temp F | wind direction | speed MPH | gust MPH | rain 1hr in | rain 24hr in | rain mn in | humidity % | barometer mb |
| 20260510043028 | 49 | 0 | 0.0 | 0.0 | 0.00 | 0.06 | 0.00 | 96 | 1011.1 |
| 20260510041532 | 49 | 0 | 0.0 | 0.0 | 0.00 | 0.06 | 0.00 | 95 | 1011.1 |
| 20260510040027 | 49 | 0 | 0.0 | 0.0 | 0.00 | 0.06 | 0.00 | 95 | 1011.1 |
| 20260510034530 | 49 | 0 | 0.0 | 0.0 | 0.00 | 0.06 | 0.06 | 95 | 1010.9 |
| 20260510033028 | 49 | 0 | 0.0 | 0.0 | 0.00 | 0.06 | 0.06 | 95 | 1011.0 |
| 20260510031530 | 48 | 0 | 0.0 | 0.0 | 0.00 | 0.06 | 0.06 | 95 | 1010.8 |
| 20260510030029 | 48 | 0 | 0.0 | 0.0 | 0.00 | 0.06 | 0.06 | 95 | 1010.7 |
| 20260510024527 | 48 | 0 | 0.0 | 0.0 | 0.00 | 0.06 | 0.06 | 94 | 1010.6 |
| 20260510023030 | 48 | 0 | 0.0 | 0.0 | 0.00 | 0.06 | 0.06 | 93 | 1010.6 |
| 20260510021535 | 48 | 0 | 0.0 | 0.0 | 0.00 | 0.06 | 0.06 | 92 | 1010.6 |
| 20260510020032 | 48 | 0 | 0.0 | 0.0 | 0.00 | 0.06 | 0.06 | 92 | 1010.6 |
| 20260510014531 | 49 | 0 | 0.0 | 0.0 | 0.00 | 0.06 | 0.06 | 91 | 1010.5 |
| 20260510013032 | 50 | 0 | 0.0 | 0.0 | 0.00 | 0.06 | 0.06 | 91 | 1010.6 |
| 20260510011530 | 50 | 0 | 0.0 | 0.0 | 0.00 | 0.06 | 0.06 | 90 | 1010.5 |
| 20260510010028 | 51 | 0 | 0.0 | 0.0 | 0.00 | 0.06 | 0.06 | 90 | 1010.4 |
| 20260510004528 | 51 | 0 | 0.0 | 0.0 | 0.00 | 0.06 | 0.06 | 90 | 1010.2 |
| 20260510003033 | 52 | 0 | 0.0 | 0.0 | 0.00 | 0.06 | 0.06 | 90 | 1010.0 |
| 20260510001538 | 53 | 0 | 0.0 | 0.0 | 0.00 | 0.06 | 0.06 | 90 | 1010.0 |
| 20260510000028 | 54 | 0 | 0.0 | 0.0 | 0.00 | 0.06 | 0.06 | 90 | 1009.9 |
| 20260509234530 | 54 | 0 | 0.0 | 0.0 | 0.00 | 0.06 | 0.06 | 89 | 1010.0 |
| 20260509233030 | 55 | 0 | 0.0 | 0.0 | 0.00 | 0.06 | 0.06 | 90 | 1010.0 |
| 20260509231528 | 55 | 0 | 0.0 | 0.0 | 0.00 | 0.06 | 0.06 | 89 | 1009.9 |
| 20260509230027 | 55 | 0 | 0.0 | 0.0 | 0.00 | 0.06 | 0.06 | 88 | 1010.0 |
| 20260509224530 | 55 | 0 | 0.0 | 2.0 | 0.00 | 0.06 | 0.06 | 88 | 1009.9 |
| 20260509223030 | 55 | 0 | 0.0 | 5.0 | 0.00 | 0.06 | 0.06 | 89 | 1009.9 |
| 20260509221527 | 55 | 0 | 0.0 | 3.0 | 0.00 | 0.06 | 0.06 | 88 | 1009.8 |
| 20260509220028 | 56 | 0 | 0.0 | 3.0 | 0.00 | 0.06 | 0.06 | 89 | 1010.0 |
| 20260509214537 | 56 | 0 | 0.0 | 0.0 | 0.00 | 0.06 | 0.06 | 89 | 1010.1 |
| 20260509213029 | 56 | 0 | 0.0 | 0.0 | 0.01 | 0.06 | 0.06 | 89 | 1010.1 |
| 20260509211529 | 55 | 0 | 0.0 | 0.0 | 0.01 | 0.06 | 0.06 | 90 | 1010.1 |
| 20260509210028 | 55 | 0 | 0.0 | 0.0 | 0.03 | 0.06 | 0.06 | 90 | 1010.2 |
| 20260509204537 | 55 | 0 | 0.0 | 0.0 | 0.03 | 0.06 | 0.06 | 89 | 1009.9 |
| 20260509203027 | 56 | 0 | 0.0 | 0.0 | 0.03 | 0.05 | 0.05 | 88 | 1010.1 |
| 20260509201528 | 56 | 0 | 0.0 | 0.0 | 0.03 | 0.05 | 0.05 | 87 | 1009.9 |
| 20260509200037 | 56 | 0 | 0.0 | 4.0 | 0.01 | 0.03 | 0.03 | 88 | 1010.2 |
| 20260509194537 | 56 | 0 | 1.0 | 4.0 | 0.00 | 0.02 | 0.02 | 87 | 1010.3 |
| 20260509193039 | 56 | 0 | 0.0 | 6.0 | 0.01 | 0.02 | 0.02 | 87 | 1010.7 |
| 20260509191530 | 57 | 0 | 0.0 | 4.0 | 0.01 | 0.02 | 0.02 | 88 | 1011.0 |
| 20260509190028 | 57 | 0 | 0.0 | 3.0 | 0.01 | 0.02 | 0.02 | 87 | 1010.9 |
| 20260509184533 | 57 | 281 | 0.0 | 3.0 | 0.01 | 0.02 | 0.02 | 86 | 1011.0 |
| 20260509183030 | 58 | 0 | 0.0 | 8.0 | 0.00 | 0.01 | 0.01 | 84 | 1011.1 |
| 20260509181529 | 58 | 283 | 1.0 | 4.0 | 0.00 | 0.01 | 0.01 | 83 | 1011.2 |
| 20260509180028 | 58 | 272 | 0.0 | 3.0 | 0.00 | 0.01 | 0.01 | 82 | 1011.1 |
| 20260509174530 | 58 | 0 | 0.0 | 4.0 | 0.01 | 0.01 | 0.01 | 80 | 1010.9 |
| 20260509173027 | 58 | 0 | 0.0 | 3.0 | 0.01 | 0.01 | 0.01 | 81 | 1010.9 |
| 20260509171530 | 59 | 0 | 0.0 | 7.0 | 0.01 | 0.01 | 0.01 | 80 | 1011.2 |
| 20260509170033 | 60 | 302 | 1.0 | 4.0 | 0.01 | 0.01 | 0.01 | 80 | 1011.1 |
| 20260509164528 | 60 | 0 | 1.0 | 6.0 | 0.00 | 0.00 | 0.00 | 78 | 1011.1 |
| 20260509163030 | 62 | 265 | 1.0 | 7.0 | 0.00 | 0.00 | 0.00 | 72 | 1011.1 |
| 20260509161528 | 63 | 256 | 2.0 | 8.0 | 0.00 | 0.00 | 0.00 | 68 | 1011.2 |
| 20260509160028 | 63 | 291 | 2.0 | 9.0 | 0.00 | 0.00 | 0.00 | 67 | 1011.4 |
| 20260509154533 | 63 | 0 | 2.0 | 7.0 | 0.00 | 0.00 | 0.00 | 66 | 1011.5 |
| 20260509153032 | 63 | 0 | 0.0 | 8.0 | 0.00 | 0.00 | 0.00 | 69 | 1011.7 |
| 20260509151527 | 62 | 0 | 0.0 | 9.0 | 0.00 | 0.00 | 0.00 | 70 | 1011.6 |
| 20260509150029 | 61 | 289 | 1.0 | 9.0 | 0.00 | 0.00 | 0.00 | 72 | 1011.4 |
| 20260509144528 | 61 | 293 | 1.0 | 8.0 | 0.00 | 0.00 | 0.00 | 72 | 1011.5 |
| 20260509143034 | 61 | 286 | 1.0 | 7.0 | 0.00 | 0.00 | 0.00 | 73 | 1011.4 |
| 20260509141530 | 61 | 269 | 0.0 | 7.0 | 0.00 | 0.00 | 0.00 | 74 | 1011.4 |
| 20260509140049 | 60 | 0 | 0.0 | 6.0 | 0.00 | 0.00 | 0.00 | 75 | 1011.2 |
| 20260509134530 | 59 | 0 | 0.0 | 4.0 | 0.00 | 0.00 | 0.00 | 78 | 1011.4 |
| 20260509133027 | 57 | 0 | 0.0 | 3.0 | 0.00 | 0.00 | 0.00 | 81 | 1011.4 |
| 20260509131535 | 56 | 0 | 0.0 | 0.0 | 0.00 | 0.00 | 0.00 | 83 | 1011.3 |
| 20260509130029 | 55 | 0 | 0.0 | 0.0 | 0.00 | 0.00 | 0.00 | 85 | 1011.5 |
| 20260509124534 | 53 | 0 | 0.0 | 0.0 | 0.00 | 0.00 | 0.00 | 87 | 1011.7 |
| 20260509123030 | 52 | 0 | 0.0 | 1.0 | 0.00 | 0.00 | 0.00 | 88 | 1011.7 |
| 20260509121544 | 51 | 0 | 0.0 | 0.0 | 0.00 | 0.00 | 0.00 | 89 | 1011.7 |
| 20260509120034 | 51 | 0 | 0.0 | 0.0 | 0.00 | 0.00 | 0.00 | 88 | 1011.7 |
| 20260509114532 | 51 | 0 | 0.0 | 0.0 | 0.00 | 0.00 | 0.00 | 89 | 1011.6 |
| 20260509113027 | 50 | 0 | 0.0 | 0.0 | 0.00 | 0.00 | 0.00 | 89 | 1011.6 |
| 20260509111528 | 50 | 0 | 0.0 | 0.0 | 0.00 | 0.00 | 0.00 | 88 | 1011.7 |
| 20260509110028 | 50 | 0 | 0.0 | 0.0 | 0.00 | 0.00 | 0.00 | 88 | 1011.8 |
| 20260509104526 | 50 | 0 | 0.0 | 0.0 | 0.00 | 0.00 | 0.00 | 88 | 1011.6 |
| 20260509103027 | 50 | 0 | 0.0 | 0.0 | 0.00 | 0.00 | 0.00 | 88 | 1011.5 |
| 20260509101528 | 49 | 0 | 0.0 | 0.0 | 0.00 | 0.00 | 0.00 | 88 | 1011.6 |
| 20260509100032 | 49 | 0 | 0.0 | 0.0 | 0.00 | 0.00 | 0.00 | 88 | 1011.5 |
| 20260509094527 | 49 | 0 | 0.0 | 0.0 | 0.00 | 0.00 | 0.00 | 88 | 1011.4 |
| 20260509093028 | 49 | 0 | 0.0 | 0.0 | 0.00 | 0.00 | 0.00 | 88 | 1011.5 |
| 20260509091530 | 49 | 0 | 0.0 | 0.0 | 0.00 | 0.00 | 0.00 | 88 | 1011.5 |
| 20260509090030 | 49 | 0 | 0.0 | 0.0 | 0.00 | 0.00 | 0.00 | 87 | 1011.5 |
| 20260509084536 | 49 | 0 | 0.0 | 0.0 | 0.00 | 0.00 | 0.00 | 87 | 1011.6 |
| 20260509083038 | 49 | 0 | 0.0 | 0.0 | 0.00 | 0.00 | 0.00 | 87 | 1011.6 |
| 20260509081528 | 49 | 0 | 0.0 | 0.0 | 0.00 | 0.00 | 0.00 | 87 | 1011.6 |
| 20260509080029 | 49 | 0 | 0.0 | 0.0 | 0.00 | 0.00 | 0.00 | 87 | 1011.6 |
| 20260509074528 | 49 | 0 | 0.0 | 0.0 | 0.00 | 0.00 | 0.00 | 86 | 1011.8 |
| 20260509073029 | 50 | 0 | 0.0 | 0.0 | 0.00 | 0.00 | 0.00 | 84 | 1011.7 |
| 20260509071526 | 50 | 0 | 0.0 | 0.0 | 0.00 | 0.00 | 0.00 | 84 | 1011.7 |
| 20260509070028 | 51 | 0 | 0.0 | 0.0 | 0.00 | 0.00 | 0.00 | 84 | 1011.8 |
| 20260509064528 | 51 | 0 | 0.0 | 0.0 | 0.00 | 0.00 | 0.00 | 84 | 1011.8 |
| 20260509063033 | 51 | 0 | 0.0 | 0.0 | 0.00 | 0.00 | 0.00 | 83 | 1012.0 |
| 20260509061536 | 52 | 0 | 0.0 | 0.0 | 0.00 | 0.00 | 0.00 | 82 | 1012.2 |
| 20260509060028 | 52 | 0 | 0.0 | 0.0 | 0.00 | 0.00 | 0.00 | 82 | 1012.5 |
| 20260509054528 | 52 | 0 | 0.0 | 0.0 | 0.00 | 0.00 | 0.00 | 82 | 1012.5 |
| 20260509053032 | 52 | 0 | 0.0 | 0.0 | 0.00 | 0.00 | 0.00 | 81 | 1012.5 |
| 20260509051527 | 52 | 0 | 0.0 | 0.0 | 0.00 | 0.00 | 0.00 | 80 | 1012.8 |
| 20260509050031 | 53 | 0 | 0.0 | 0.0 | 0.00 | 0.00 | 0.00 | 83 | 1012.5 |
| 20260509044528 | 53 | 0 | 0.0 | 0.0 | 0.00 | 0.00 | 0.00 | 80 | 1012.6 |